MDT,Max TemperatureF,Mean TemperatureF,Min TemperatureF,Max Dew PointF,MeanDew PointF,Min DewpointF,Max Humidity, Mean Humidity, Min Humidity, Max Sea Level PressureIn, Mean Sea Level PressureIn, Min Sea Level PressureIn, Max VisibilityMiles, Mean VisibilityMiles, Min VisibilityMiles, Max Wind SpeedMPH, Mean Wind SpeedMPH, Max Gust SpeedMPH,PrecipitationIn, CloudCover, Events, WindDirDegrees
2013-8-1,77,69,61,62,54,43,93,63,33,30.17,29.98,29.86,10,10,7,28,13,35,0.12,4,Rain-Thunderstorm,117
2013-8-2,88,75,61,59,56,51,90,60,29,30.01,29.92,29.83,10,10,10,25,9,31,0.00,1,,117
2013-8-3,90,78,65,57,54,46,68,46,24,30.11,29.94,29.86,10,10,10,29,9,37,T,2,Thunderstorm,177
2013-8-4,87,75,63,54,50,44,67,46,25,30.13,29.97,29.91,10,10,10,30,13,45,T,2,Rain,128
2013-8-5,88,76,64,57,51,45,78,52,26,30.01,29.92,29.83,10,10,10,21,7,26,0.00,3,,122
2013-8-6,90,76,62,57,50,42,63,42,21,30.11,29.90,29.82,10,10,8,35,10,41,0.01,2,Rain-Thunderstorm,121
2013-8-7,84,73,61,54,50,36,67,44,20,29.96,29.90,29.83,10,10,10,24,10,29,0.00,2,,116
2013-8-8,86,73,60,51,47,36,72,45,17,30.10,29.92,29.82,10,10,6,23,7,26,0.01,1,Rain-Thunderstorm,312
2013-8-9,87,73,58,54,47,35,64,40,16,30.14,29.97,29.88,10,10,4,32,10,39,0.08,2,Rain-Thunderstorm,117
2013-8-10,81,69,56,54,47,39,86,56,25,30.26,30.07,30.00,10,10,10,37,13,46,T,1,Rain,119
2013-8-11,87,71,54,51,44,38,77,49,20,30.17,30.04,29.92,10,10,10,22,7,26,0.00,1,,137
2013-8-12,85,71,56,45,43,39,57,39,20,30.17,29.99,29.91,10,10,10,22,8,30,T,3,,160
2013-8-13,89,73,57,47,41,34,67,41,14,30.08,29.99,29.91,10,10,10,18,8,22,0.00,1,,90
2013-8-14,92,75,58,43,36,24,47,28,9,30.04,29.95,29.87,10,10,10,17,8,22,0.00,0,,152
2013-8-15,95,76,57,38,30,20,43,25,7,30.01,29.93,29.86,10,10,10,16,8,22,0.00,0,,119
2013-8-16,95,76,57,36,30,21,35,21,7,30.02,29.93,29.86,10,10,10,16,7,20,0.00,1,,129
2013-8-17,96,78,60,45,37,32,37,25,13,30.00,29.92,29.87,10,10,10,31,9,36,0.00,1,,70
2013-8-18,93,78,63,46,43,39,48,32,16,30.01,29.93,29.83,10,10,10,17,7,22,0.00,1,,153
2013-8-19,97,80,63,47,43,36,52,32,12,30.06,29.89,29.77,10,10,10,24,9,30,0.00,1,,149
2013-8-20,88,78,68,50,46,43,44,33,21,29.91,29.86,29.81,10,10,10,25,10,30,0.00,1,,131
2013-8-21,93,76,59,50,46,35,67,41,14,29.99,29.91,29.83,10,10,10,24,8,29,0.00,0,,156
2013-8-22,90,79,67,51,48,45,53,39,24,30.00,29.92,29.83,10,10,10,17,7,20,0.00,2,,225
2013-8-23,88,76,63,62,54,48,78,53,28,30.10,29.90,29.79,10,9,2,38,8,51,0.33,3,Rain-Thunderstorm,135
2013-8-24,86,73,60,58,52,43,84,54,23,29.99,29.92,29.86,10,10,10,24,6,31,T,3,Rain,86
2013-8-25,70,65,60,64,60,54,100,81,61,30.28,30.11,29.98,10,8,2,15,5,16,0.59,7,Rain,268
2013-8-26,78,70,61,64,61,59,100,79,58,30.27,30.09,30.01,10,10,10,12,6,14,0.04,5,Rain,75
2013-8-27,84,72,60,62,60,57,100,72,43,30.08,29.99,29.92,10,10,10,15,4,18,T,2,,358
2013-8-28,90,75,59,60,54,45,93,57,21,30.00,29.94,29.87,10,10,10,15,6,20,0.00,0,,347
2013-8-29,93,78,63,54,50,42,67,43,18,30.04,29.96,29.90,10,10,10,14,8,18,0.00,0,,135
2013-8-30,95,81,67,53,50,43,58,38,17,30.09,29.93,29.84,10,10,10,26,9,31,0.00,1,,138
2013-8-31,93,81,69,55,52,47,57,40,23,29.96,29.87,29.77,10,10,10,30,9,38,0.00,2,,142